TIME,DELAY(SENSOR),PRES,OXYGEN,RAWTEMP,T(OPTODE),TCPHASE,FLUOR,BETA(BETA700),BETA(BETA412),BETA(BETA440),CDOM,C(CSC),ED(ED412.20),ED(ED444.00),ED(ED489.60),ED(ED554.30),LU(LU412.10),LU(LU443.90),LU(LU489.70),LU(LU554.70),COMP,TILTX,TILTY,CHECK
1351480497,5809,891.3699951171875000,34.4085884094238300,554.0676269531250000,4.6696071624755860,56.3144111633300800,54,100,100,78,81,15550,0,0,0,0,2147126656,2147772955,2147573229,2147570386,1034,3,13,1241
1351484093,5807,960.8200073242188000,38.9570388793945300,561.2896118164062000,4.4459228515625000,55.6775703430175800,55,99,100,78,82,15528,0,0,0,0,2147121106,2147769097,2147570587,2147568932,120,3,13,37841
1351487693,5807,974.1599731445312000,37.8468704223632800,561.3944702148438000,4.4426689147949220,55.8526306152343750,56,102,100,78,82,15534,0,0,0,0,2147126784,2147770368,2147570532,2147571922,3403,3,13,62281
1351491293,5809,968.1099853515625000,38.3738899230957000,562.2512207031250000,4.4161047935485840,55.7807617187500000,55,99,101,78,82,15536,0,0,0,0,2147118701,2147771574,2147574482,2147573403,3025,3,13,8745
1351494893,5810,975.9400024414062000,37.5671081542968750,562.0925292968750000,4.4210281372070310,55.9012794494628900,55,98,100,78,82,15520,0,0,0,0,2147125412,2147772845,2147571254,2147570358,223,3,13,53723
1351498493,5807,975.9799804687500000,37.5242996215820300,562.2910156250000000,4.4148731231689450,55.9116516113281250,55,99,100,77,81,15519,0,0,0,0,2147122989,2147773778,2147572370,2147572736,196,3,13,22865
1351502093,5809,983.3099975585938000,37.3874397277832000,562.5675048828125000,4.4062981605529785,55.9390716552734400,56,98,100,78,82,15519,0,0,0,0,2147123382,2147771620,2147573586,2147571584,3103,3,13,49179
1351505693,5811,975.2399902343750000,37.2904815673828100,562.3167724609375000,4.4140701293945310,55.9474601745605500,55,99,99,78,82,15518,0,0,0,0,2147122861,2147768091,2147571291,2147570825,895,3,13,32564
1351509293,5812,977.0700073242188000,37.3570404052734400,563.0371093750000000,4.3917307853698730,55.9443397521972660,55,101,100,77,83,15519,0,0,0,0,2147122953,2147770550,2147571648,2147571273,3410,3,13,26796
1351512893,5810,975.0399780273438000,37.2558212280273440,563.4368286132812000,4.3793330192565920,55.9587211608886700,55,99,101,76,82,15515,0,0,0,0,2147123428,2147774006,2147572544,2147570733,3022,3,13,5734
1351516493,5811,982.2899780273438000,37.3983306884765600,563.5001220703125000,4.3773708343505860,55.9390602111816400,56,97,100,77,83,15518,0,0,0,0,2147124800,2147773705,2147569490,2147571766,3218,3,13,15860
1351520093,5809,982.5999755859375000,37.3176307678222660,563.4121704101562000,4.3800959587097170,55.9495582580566400,56,101,100,76,82,15517,0,0,0,0,2147122185,2147771520,2147574930,2147571885,3048,3,13,43973
1351523693,5810,980.5599975585938000,37.2674293518066400,563.2540283203125000,4.3850059509277340,55.9635086059570300,55,100,101,77,82,15516,0,0,0,0,2147123931,2147772973,2147577206,2147571492,3535,3,13,64186
1351527293,5808,984.7899780273438000,37.2429084777832000,563.3884887695312000,4.3808331489562990,55.9645690917968750,55,97,100,79,84,15514,0,0,0,0,2147121334,2147770560,2147573184,2147571172,106,3,13,7372
1351530893,5809,981.9099731445312000,37.1404190063476560,563.3624267578125000,4.3816428184509280,55.9784202575683600,56,97,100,78,82,15513,0,0,0,0,2147123821,2147773531,2147570852,2147568173,3318,3,13,30312
1351534493,5809,985.0300292968750000,37.1099700927734400,563.3422241210938000,4.3822708129882810,55.9818000793457000,56,99,101,78,82,15515,0,0,0,0,2147123309,2147772242,2147579419,2147572269,278,3,13,59339
1351538093,5808,982.8699951171875000,37.0041809082031250,563.3690185546875000,4.3814392089843750,56.0026817321777340,55,100,100,77,82,15514,0,0,0,0,2147126564,2147772580,2147575744,2147569728,253,3,13,29262
1351541693,5812,979.7899780273438000,37.2262496948242200,563.3928833007812000,4.3806948661804200,55.9705200195312500,55,98,100,78,82,15517,0,0,0,0,2147125942,2147773056,2147575588,2147570816,393,3,13,20525
1351545293,5809,984.2899780273438000,37.0368690490722660,563.4824829101562000,4.3779139518737790,55.9980010986328100,55,98,101,77,83,15517,0,0,0,0,2147125248,2147775168,2147577526,2147572553,612,3,13,24844
1351548893,5809,983.5999755859375000,37.0365982055664060,564.4602050781250000,4.3475837707519530,56.0097999572753900,56,100,102,78,81,15510,0,0,0,0,2147122989,2147772891,2147569124,2147572672,3412,3,13,60850
1351552493,5808,976.9600219726562000,37.1904602050781250,563.8557128906250000,4.3663411140441895,55.9784011840820300,55,99,101,79,83,15507,0,0,0,0,2147121481,2147772114,2147577874,2147568758,591,3,13,11691
1351556093,5809,989.1799926757812000,37.6441192626953100,564.1010131835938000,4.3587279319763180,55.9075889587402340,54,99,100,78,82,15500,0,0,0,0,2147124516,2147778221,2147570340,2147572406,3123,3,13,61807
1351559693,5809,988.7500000000000000,36.9763984680175800,563.6832885742188000,4.3716869354248050,56.0098609924316400,55,99,102,78,81,15505,0,0,0,0,2147123693,2147773376,2147577078,2147570157,3574,3,13,29995
1351563293,5808,983.8599853515625000,37.0086708068847660,563.2213745117188000,4.3860149383544920,56.0003890991210940,55,100,101,79,83,15503,0,0,0,0,2147121508,2147768914,2147574336,2147570093,843,3,13,26227
1351566893,5811,990.5499877929688000,36.9444694519043000,563.1945800781250000,4.3868470191955570,56.0065116882324200,56,97,101,77,82,15505,0,0,0,0,2147123392,2147776192,2147574217,2147571922,735,3,13,61990
1351570493,5809,984.8300170898438000,36.4614295959472660,563.4970703125000000,4.3774638175964355,56.0847091674804700,54,104,100,76,83,15509,0,0,0,0,2147125760,2147774354,2147573796,2147570560,76,3,13,9754
1351574093,5808,984.7700195312500000,36.9340705871582000,563.5109863281250000,4.3770308494567870,56.0154914855957000,55,99,100,78,84,15510,0,0,0,0,2147124973,2147770029,2147576155,2147569005,330,3,13,33529
1351577693,5809,989.7800292968750000,37.0263404846191400,563.7144165039062000,4.3707242012023930,56.0019111633300800,55,98,101,78,82,15508,0,0,0,0,2147125074,2147771894,2147575177,2147571529,103,3,13,41802
1351581293,5811,991.7600097656250000,36.6446113586425800,563.2971191406250000,4.3836688995361330,56.0545005798339840,55,99,99,78,83,15508,0,0,0,0,2147122139,2147768320,2147574537,2147569526,17,3,13,10594
1351584893,5810,989.2800292968750000,36.9099388122558600,562.9254150390625000,4.3951969146728520,56.0163612365722660,55,99,99,77,82,15507,0,0,0,0,2147124626,2147766784,2147577654,2147570496,405,3,13,54655
1351588493,5811,1000.9299926757812000,36.9284896850585940,562.5435791015625000,4.4070382118225100,56.0079307556152340,55,100,100,77,82,15506,0,0,0,0,2147124772,2147776850,2147574537,2147567506,100,3,13,14425
1351592093,5809,990.1300048828125000,36.2117004394531250,563.0004882812500000,4.3928661346435550,56.1177101135253900,54,97,100,77,82,15508,0,0,0,0,2147125668,2147771337,2147572196,2147568384,3516,3,13,18902
1351595693,5812,989.7500000000000000,36.8557014465332000,563.0897216796875000,4.3901019096374510,56.0204505920410160,56,99,100,77,83,15506,0,0,0,0,2147120173,2147768822,2147574345,2147571145,3555,3,13,26876
1351599293,5809,991.2700195312500000,36.3258705139160160,563.4086303710938000,4.3802108764648440,56.1049804687500000,55,97,100,77,83,15508,0,0,0,0,2147120649,2147770505,2147573211,2147568530,134,3,13,48481
1351602893,5810,988.0200195312500000,36.4093093872070300,563.6979980468750000,4.3712310791015625,56.0991783142089840,55,97,101,78,81,15506,0,0,0,0,2147122971,2147776146,2147576521,2147569654,292,3,13,14399
1351606493,5810,985.4500122070312000,36.8288192749023440,563.8870239257812000,4.3653678894042970,56.0327301025390600,55,98,99,77,83,15509,0,0,0,0,2147122578,2147772964,2147577636,2147571419,19,3,12,5567
1351610093,5811,986.4500122070312000,37.4019508361816400,564.4379882812500000,4.3482699394226070,55.9511985778808600,55,103,101,77,82,15507,0,0,0,0,2147124873,2147773650,2147575680,2147568740,3476,3,12,47019
1351613693,5811,985.0900268554688000,37.4821281433105500,563.9417724609375000,4.3636670112609860,55.9308509826660160,55,98,100,77,82,15507,0,0,0,0,2147127972,2147774107,2147572781,2147568822,71,3,12,46836
1351617293,5811,989.8800048828125000,37.3941307067871100,564.0858764648438000,4.3591980934143070,55.9498405456543000,55,98,100,79,83,15507,0,0,0,0,2147125531,2147778724,2147573348,2147572882,138,3,13,32833
1351620893,5815,984.7700195312500000,37.2420005798339840,565.3757934570312000,4.3191699981689450,55.9824790954589840,55,99,100,79,82,15506,0,0,0,0,2147125741,2147770742,2147571328,2147570084,98,3,12,56047
1351624493,5807,985.5499877929688000,37.3888816833496100,564.5421142578125000,4.3450431823730470,55.9541206359863300,55,97,100,78,83,15507,0,0,0,0,2147124050,2147776923,2147571346,2147568356,3357,3,13,26654
1351625156,5810,984.1099853515625000,37.3628807067871100,564.7971191406250000,4.3371319770812990,55.9625205993652340,56,98,101,76,83,15504,0,0,0,0,2147126555,2147772160,2147576548,2147570624,2477,3,13,62960
